sat.trackr.live / text

‹ back to catalog

HULIANWANG DIGUI-163

NORAD 68137 · 2026-047J

PAYLOAD ACTIVE UNKNOWN

§ Identity

Operator
Country
PRC
Launch date
2026-03-12
Launch site
WSC
Launch vehicle
Mass (kg)
RCS (m²)

External: N2YO · Heavens-Above · Gunter

§ Orbital elements

Epoch: 2026-09-20T04:32:12.852096Z

Period
108.33 min
Inclination
50.0060°
Eccentricity
0.0001185
Mean motion
13.29329732 rev/d
Perigee alt
1,148.4 km
Apogee alt
1,150.2 km
Semi-major
7,527.4 km
B*
3.2596e-5
RAAN
75.1236°
Arg perigee
91.3931°
Mean anomaly
268.7077°
Rev number
2,571

§ Raw data

HULIANWANG DIGUI-1631 68137U 26047J   26263.18903764 -.00000109  00000+0  32596-4 0  99902 68137  50.0060  75.1236 0001185  91.3931 268.7077 13.29329732 25716

JSON: /api/v1/satellites/68137 · /tle

For live sub-satellite position, see the globe view (requires WebGL).

§ Visibility from observer

Set your observer location to see the next 7 days of passes ≥ 10°. The values pass through the URL so the page stays shareable.

No JS? Fill the form by hand. The geolocation button needs JavaScript.